| time (UTC) | temp F | wind direction | speed MPH | gust MPH | rain 1hr in | rain 24hr in | rain mn in | humidity % | barometer mb |
| 20260507093056 | 58 | 301 | 0.0 | 2.0 | 0.00 | 0.00 | 0.00 | 66 | 1011.1 |
| 20260507091555 | 58 | 301 | 0.0 | 1.0 | 0.00 | 0.00 | 0.00 | 66 | 1011.0 |
| 20260507090056 | 58 | 301 | 0.0 | 2.0 | 0.00 | 0.00 | 0.00 | 68 | 1011.0 |
| 20260507084558 | 58 | 301 | 0.0 | 1.0 | 0.00 | 0.00 | 0.00 | 65 | 1011.2 |
| 20260507083050 | 58 | 301 | 0.0 | 2.0 | 0.00 | 0.00 | 0.00 | 62 | 1010.9 |
| 20260507081549 | 59 | 301 | 0.0 | 1.0 | 0.00 | 0.00 | 0.00 | 60 | 1011.0 |
| 20260507080047 | 59 | 301 | 0.0 | 2.0 | 0.00 | 0.00 | 0.00 | 59 | 1011.0 |
| 20260507074548 | 60 | 302 | 0.0 | 0.0 | 0.00 | 0.00 | 0.00 | 60 | 1011.1 |
| 20260507073052 | 61 | 301 | 0.0 | 2.0 | 0.00 | 0.00 | 0.00 | 62 | 1010.9 |
| 20260507071538 | 62 | 301 | 0.0 | 3.0 | 0.00 | 0.00 | 0.00 | 61 | 1010.8 |
| 20260507070039 | 62 | 301 | 0.0 | 2.0 | 0.00 | 0.00 | 0.00 | 61 | 1010.3 |
| 20260507064542 | 63 | 301 | 0.0 | 3.0 | 0.00 | 0.00 | 0.00 | 59 | 1010.3 |
| 20260507063040 | 63 | 301 | 0.0 | 2.0 | 0.00 | 0.00 | 0.00 | 58 | 1010.1 |
| 20260507061537 | 64 | 303 | 0.0 | 0.0 | 0.00 | 0.00 | 0.00 | 57 | 1010.0 |
| 20260507060036 | 65 | 303 | 0.0 | 0.0 | 0.00 | 0.00 | 0.00 | 55 | 1009.9 |
| 20260507054531 | 66 | 303 | 0.0 | 0.0 | 0.00 | 0.00 | 0.00 | 50 | 1010.3 |
| 20260507053035 | 67 | 303 | 0.0 | 0.0 | 0.00 | 0.00 | 0.00 | 44 | 1010.0 |
| 20260507051530 | 68 | 303 | 0.0 | 0.0 | 0.00 | 0.00 | 0.00 | 42 | 1010.1 |
| 20260507050032 | 69 | 303 | 0.0 | 0.0 | 0.00 | 0.00 | 0.00 | 39 | 1010.0 |
| 20260507044527 | 69 | 303 | 0.0 | 0.0 | 0.00 | 0.00 | 0.00 | 41 | 1009.8 |
| 20260507043030 | 69 | 304 | 0.0 | 0.0 | 0.00 | 0.00 | 0.00 | 40 | 1009.8 |
| 20260507041528 | 70 | 303 | 0.0 | 4.0 | 0.00 | 0.00 | 0.00 | 40 | 1009.5 |
| 20260507040024 | 70 | 285 | 1.0 | 4.0 | 0.00 | 0.00 | 0.00 | 39 | 1009.2 |
| 20260507034532 | 71 | 299 | 0.0 | 2.0 | 0.00 | 0.00 | 0.00 | 38 | 1009.2 |
| 20260507033024 | 72 | 297 | 0.0 | 6.0 | 0.00 | 0.00 | 0.00 | 37 | 1008.9 |
| 20260507031522 | 73 | 260 | 1.0 | 8.0 | 0.00 | 0.00 | 0.00 | 36 | 1008.6 |
| 20260507030024 | 73 | 301 | 1.0 | 5.0 | 0.00 | 0.00 | 0.00 | 36 | 1008.3 |
| 20260507024522 | 75 | 259 | 1.0 | 8.0 | 0.00 | 0.00 | 0.00 | 35 | 1008.1 |
| 20260507023022 | 75 | 278 | 1.0 | 5.0 | 0.00 | 0.00 | 0.00 | 35 | 1008.2 |
| 20260507021521 | 76 | 301 | 1.0 | 5.0 | 0.00 | 0.00 | 0.00 | 34 | 1008.0 |
| 20260507020021 | 77 | 295 | 1.0 | 4.0 | 0.00 | 0.00 | 0.00 | 33 | 1007.9 |
| 20260507014524 | 78 | 293 | 1.0 | 5.0 | 0.00 | 0.00 | 0.00 | 33 | 1007.8 |
| 20260507013020 | 79 | 307 | 1.0 | 4.0 | 0.00 | 0.00 | 0.00 | 31 | 1007.8 |
| 20260507011520 | 80 | 251 | 1.0 | 9.0 | 0.00 | 0.00 | 0.00 | 31 | 1007.8 |
| 20260507010029 | 80 | 254 | 1.0 | 5.0 | 0.00 | 0.00 | 0.00 | 33 | 1007.6 |
| 20260507004517 | 80 | 164 | 3.0 | 11.0 | 0.00 | 0.00 | 0.00 | 40 | 1007.1 |
| 20260507003017 | 81 | 126 | 0.0 | 10.0 | 0.00 | 0.00 | 0.00 | 38 | 1007.0 |
| 20260507001517 | 82 | 170 | 1.0 | 7.0 | 0.00 | 0.00 | 0.00 | 37 | 1006.9 |
| 20260507000016 | 83 | 185 | 2.0 | 7.0 | 0.00 | 0.00 | 0.00 | 36 | 1006.8 |
| 20260506234534 | 83 | 143 | 1.0 | 7.0 | 0.00 | 0.00 | 0.00 | 37 | 1006.9 |
| 20260506233015 | 84 | 146 | 2.0 | 14.0 | 0.00 | 0.00 | 0.00 | 36 | 1007.0 |
| 20260506231513 | 85 | 147 | 3.0 | 16.0 | 0.00 | 0.00 | 0.00 | 35 | 1007.1 |
| 20260506230010 | 84 | 165 | 1.0 | 9.0 | 0.00 | 0.00 | 0.00 | 34 | 1007.3 |
| 20260506224522 | 84 | 216 | 2.0 | 10.0 | 0.00 | 0.00 | 0.00 | 33 | 1007.6 |
| 20260506223008 | 84 | 212 | 1.0 | 8.0 | 0.00 | 0.00 | 0.00 | 31 | 1007.8 |
| 20260506221507 | 85 | 126 | 2.0 | 11.0 | 0.00 | 0.00 | 0.00 | 29 | 1007.9 |
| 20260506220017 | 85 | 175 | 2.0 | 10.0 | 0.00 | 0.00 | 0.00 | 28 | 1008.0 |
| 20260506214504 | 85 | 111 | 1.0 | 9.0 | 0.00 | 0.00 | 0.00 | 31 | 1008.2 |
| 20260506213002 | 84 | 163 | 2.0 | 12.0 | 0.00 | 0.00 | 0.00 | 31 | 1008.4 |
| 20260506211559 | 84 | 147 | 1.0 | 13.0 | 0.00 | 0.00 | 0.00 | 32 | 1008.4 |
| 20260506210057 | 84 | 214 | 1.0 | 9.0 | 0.00 | 0.00 | 0.00 | 31 | 1008.6 |
| 20260506204555 | 83 | 191 | 2.0 | 8.0 | 0.00 | 0.00 | 0.00 | 32 | 1008.8 |
| 20260506203059 | 83 | 171 | 3.0 | 11.0 | 0.00 | 0.00 | 0.00 | 32 | 1008.7 |
| 20260506201552 | 83 | 359 | 2.0 | 10.0 | 0.00 | 0.00 | 0.00 | 33 | 1009.0 |
| 20260506200047 | 82 | 181 | 2.0 | 10.0 | 0.00 | 0.00 | 0.00 | 34 | 1009.1 |
| 20260506194546 | 82 | 170 | 2.0 | 10.0 | 0.00 | 0.00 | 0.00 | 35 | 1009.3 |
| 20260506193049 | 80 | 196 | 1.0 | 6.0 | 0.00 | 0.00 | 0.00 | 37 | 1009.3 |
| 20260506191539 | 80 | 207 | 2.0 | 9.0 | 0.00 | 0.00 | 0.00 | 37 | 1009.4 |
| 20260506190038 | 79 | 129 | 1.0 | 7.0 | 0.00 | 0.00 | 0.00 | 38 | 1009.4 |
| 20260506184537 | 79 | 195 | 2.0 | 7.0 | 0.00 | 0.00 | 0.00 | 38 | 1009.6 |
| 20260506183038 | 79 | 189 | 1.0 | 9.0 | 0.00 | 0.00 | 0.00 | 40 | 1009.7 |
| 20260506181531 | 78 | 211 | 1.0 | 7.0 | 0.00 | 0.00 | 0.00 | 40 | 1009.9 |
| 20260506180026 | 77 | 221 | 2.0 | 8.0 | 0.00 | 0.00 | 0.00 | 41 | 1009.9 |
| 20260506174522 | 75 | 224 | 1.0 | 8.0 | 0.00 | 0.00 | 0.00 | 43 | 1009.9 |
| 20260506173022 | 75 | 191 | 2.0 | 9.0 | 0.00 | 0.00 | 0.00 | 45 | 1010.1 |
| 20260506171520 | 74 | 197 | 1.0 | 9.0 | 0.00 | 0.00 | 0.00 | 46 | 1010.2 |
| 20260506170011 | 73 | 206 | 1.0 | 10.0 | 0.00 | 0.00 | 0.00 | 47 | 1010.5 |
| 20260506164512 | 73 | 147 | 1.0 | 4.0 | 0.00 | 0.00 | 0.00 | 48 | 1010.5 |
| 20260506163003 | 72 | 208 | 0.0 | 4.0 | 0.00 | 0.00 | 0.00 | 50 | 1010.6 |
| 20260506161600 | 72 | 187 | 1.0 | 5.0 | 0.00 | 0.00 | 0.00 | 50 | 1010.6 |
| 20260506160108 | 71 | 143 | 0.0 | 4.0 | 0.00 | 0.00 | 0.00 | 53 | 1010.5 |
| 20260506154550 | 70 | 115 | 2.0 | 8.0 | 0.00 | 0.00 | 0.00 | 55 | 1010.5 |
| 20260506153045 | 68 | 137 | 1.0 | 5.0 | 0.00 | 0.00 | 0.00 | 57 | 1010.3 |
| 20260506151544 | 68 | 129 | 1.0 | 7.0 | 0.00 | 0.00 | 0.00 | 58 | 1010.4 |
| 20260506150037 | 67 | 100 | 1.0 | 4.0 | 0.00 | 0.00 | 0.00 | 59 | 1010.4 |
| 20260506144532 | 66 | 80 | 0.0 | 0.0 | 0.00 | 0.00 | 0.00 | 60 | 1010.3 |
| 20260506143033 | 65 | 81 | 0.0 | 0.0 | 0.00 | 0.00 | 0.00 | 62 | 1010.3 |
| 20260506141523 | 64 | 80 | 0.0 | 0.0 | 0.00 | 0.00 | 0.00 | 64 | 1010.2 |
| 20260506140019 | 63 | 81 | 0.0 | 3.0 | 0.00 | 0.00 | 0.00 | 67 | 1010.1 |
| 20260506134520 | 61 | 80 | 0.0 | 0.0 | 0.00 | 0.00 | 0.00 | 73 | 1010.0 |
| 20260506133011 | 58 | 81 | 0.0 | 0.0 | 0.00 | 0.00 | 0.00 | 79 | 1009.8 |
| 20260506131513 | 56 | 81 | 0.0 | 0.0 | 0.00 | 0.00 | 0.00 | 80 | 1009.6 |
| 20260506130004 | 56 | 81 | 0.0 | 0.0 | 0.00 | 0.00 | 0.00 | 80 | 1009.4 |
| 20260506124500 | 56 | 81 | 0.0 | 0.0 | 0.00 | 0.00 | 0.00 | 79 | 1009.3 |
| 20260506123058 | 57 | 81 | 0.0 | 0.0 | 0.00 | 0.00 | 0.00 | 77 | 1009.3 |
| 20260506121556 | 58 | 80 | 0.0 | 0.0 | 0.00 | 0.00 | 0.00 | 75 | 1009.0 |
| 20260506120054 | 59 | 80 | 0.0 | 0.0 | 0.00 | 0.00 | 0.00 | 74 | 1008.9 |
| 20260506114550 | 59 | 80 | 0.0 | 0.0 | 0.00 | 0.00 | 0.00 | 73 | 1008.7 |
| 20260506113048 | 59 | 80 | 0.0 | 1.0 | 0.00 | 0.00 | 0.00 | 74 | 1008.6 |
| 20260506111546 | 58 | 81 | 1.0 | 3.0 | 0.00 | 0.00 | 0.00 | 77 | 1008.5 |
| 20260506110044 | 57 | 81 | 0.0 | 0.0 | 0.00 | 0.00 | 0.00 | 76 | 1008.5 |
| 20260506104548 | 58 | 81 | 0.0 | 0.0 | 0.00 | 0.00 | 0.00 | 74 | 1008.3 |
| 20260506103040 | 58 | 81 | 0.0 | 0.0 | 0.00 | 0.00 | 0.00 | 73 | 1008.2 |
| 20260506101537 | 59 | 80 | 0.0 | 0.0 | 0.00 | 0.00 | 0.00 | 72 | 1008.3 |
| 20260506100037 | 60 | 80 | 0.0 | 1.0 | 0.00 | 0.00 | 0.00 | 71 | 1008.1 |
| 20260506094545 | 60 | 80 | 0.0 | 0.0 | 0.00 | 0.00 | 0.00 | 70 | 1008.1 |